Location: Ku?niki
(51.4449°N, 17.8974°E)
Time: 18:43:48
(UTC+00:00)

CZ-4C R/B - Pass Details

Date: 18 September 2020
Orbit: 627 x 1375 km, 63.4° (Epoch: 21 October)

Event Time Altitude Azimuth Distance (km) Brightness Sun altitude
Exits shadow 23:01:58 38° 18° (NNE) 1,364 3.6 -37.0°
Drops below altitude 10° 23:06:19 10° 43° (NE) 2,790 5.4 -36.9°
Sets 23:09:18 0° 48° (NE) 3,871 6.2 -36.8°
